Time,TemperatureF,DewpointF,PressureIn,WindDirection,WindDirectionDegrees,WindSpeedMPH,WindSpeedGustMPH,Humidity,HourlyPrecipIn,Conditions,Clouds,dailyrainin,SoftwareType,DateUTC
2013-01-24 00:04:00,35.7,13.2,30.41,NNE,12,7.0,0.0,39,0.00,,,0.00,WeatherTracker,2013-01-24 07:04:00,
2013-01-24 00:14:00,34.1,15.0,30.42,NW,307,4.0,0.0,45,0.00,,,0.00,WeatherTracker,2013-01-24 07:14:00,
2013-01-24 00:19:00,33.7,12.5,30.42,NW,309,0.0,0.0,41,0.00,,,0.00,WeatherTracker,2013-01-24 07:19:00,
2013-01-24 00:24:00,33.3,13.8,30.42,NW,309,0.0,0.0,44,0.00,,,0.00,WeatherTracker,2013-01-24 07:24:00,
2013-01-24 00:34:00,32.2,15.7,30.41,South,190,2.0,0.0,50,0.00,,,0.00,WeatherTracker,2013-01-24 07:34:00,
2013-01-24 00:39:00,31.7,15.2,30.41,SE,142,1.0,0.0,50,0.00,,,0.00,WeatherTracker,2013-01-24 07:39:00,
2013-01-24 00:49:00,31.1,16.8,30.41,NNW,348,5.0,0.0,55,0.00,,,0.00,WeatherTracker,2013-01-24 07:49:00,
2013-01-24 00:54:00,31.0,16.7,30.42,WSW,243,0.0,0.0,55,0.00,,,0.00,WeatherTracker,2013-01-24 07:54:00,
2013-01-24 00:59:00,30.7,16.5,30.42,South,189,2.0,0.0,55,0.00,,,0.00,WeatherTracker,2013-01-24 07:59:00,
2013-01-24 01:09:00,30.6,15.5,30.41,South,187,2.0,0.0,53,0.00,,,0.00,WeatherTracker,2013-01-24 08:09:00,
2013-01-24 01:19:00,30.5,17.1,30.40,SSW,198,2.0,0.0,57,0.00,,,0.00,WeatherTracker,2013-01-24 08:19:00,
2013-01-24 01:30:00,30.5,16.3,30.41,SSE,163,2.0,0.0,55,0.00,,,0.00,WeatherTracker,2013-01-24 08:30:00,
2013-01-24 01:39:00,30.6,16.4,30.40,SE,143,2.0,0.0,55,0.00,,,0.00,WeatherTracker,2013-01-24 08:39:00,
2013-01-24 01:44:00,30.9,16.2,30.40,South,190,4.0,0.0,54,0.00,,,0.00,WeatherTracker,2013-01-24 08:44:00,
2013-01-24 01:49:00,31.1,16.4,30.40,SSE,160,2.0,0.0,54,0.00,,,0.00,WeatherTracker,2013-01-24 08:49:00,
2013-01-24 01:54:00,31.1,17.7,30.40,SSW,206,2.0,0.0,57,0.00,,,0.00,WeatherTracker,2013-01-24 08:54:00,
2013-01-24 02:04:00,31.0,16.7,30.40,South,175,0.0,0.0,55,0.00,,,0.00,WeatherTracker,2013-01-24 09:04:00,
2013-01-24 02:14:00,31.4,17.5,30.40,SSW,194,2.0,0.0,56,0.00,,,0.00,WeatherTracker,2013-01-24 09:14:00,
2013-01-24 02:24:00,31.3,17.9,30.40,WNW,289,1.0,0.0,57,0.00,,,0.00,WeatherTracker,2013-01-24 09:24:00,
2013-01-24 02:29:00,31.1,18.9,30.40,West,267,1.0,0.0,60,0.00,,,0.00,WeatherTracker,2013-01-24 09:29:00,
2013-01-24 02:39:00,30.7,17.7,30.40,WSW,246,1.0,0.0,58,0.00,,,0.00,WeatherTracker,2013-01-24 09:39:00,
2013-01-24 02:44:00,30.7,18.1,30.39,WSW,246,0.0,0.0,59,0.00,,,0.00,WeatherTracker,2013-01-24 09:44:00,
2013-01-24 02:54:00,30.8,16.6,30.40,SSE,168,2.0,0.0,55,0.00,,,0.00,WeatherTracker,2013-01-24 09:54:00,
2013-01-24 02:59:00,30.8,17.4,30.40,SSE,161,2.0,0.0,57,0.00,,,0.00,WeatherTracker,2013-01-24 09:59:00,
2013-01-24 03:04:00,30.8,16.1,30.39,SSE,154,1.0,0.0,54,0.00,,,0.00,WeatherTracker,2013-01-24 10:04:00,
2013-01-24 03:14:00,30.7,15.6,30.39,SSE,159,2.0,0.0,53,0.00,,,0.00,WeatherTracker,2013-01-24 10:14:00,
2013-01-24 03:24:00,29.9,16.5,30.39,WSW,257,0.0,0.0,57,0.00,,,0.00,WeatherTracker,2013-01-24 10:24:00,
2013-01-24 03:34:00,29.2,16.7,30.39,SSE,152,0.0,0.0,59,0.00,,,0.00,WeatherTracker,2013-01-24 10:34:00,
2013-01-24 03:39:00,28.8,17.4,30.39,SSE,161,0.0,0.0,62,0.00,,,0.00,WeatherTracker,2013-01-24 10:39:00,
2013-01-24 03:49:00,28.1,16.4,30.39,South,169,1.0,0.0,61,0.00,,,0.00,WeatherTracker,2013-01-24 10:49:00,
2013-01-24 03:54:00,27.7,15.6,30.39,South,175,1.0,0.0,60,0.00,,,0.00,WeatherTracker,2013-01-24 10:54:00,
2013-01-24 03:59:00,27.6,14.8,30.40,SSE,152,0.0,0.0,58,0.00,,,0.00,WeatherTracker,2013-01-24 10:59:00,
2013-01-24 04:09:00,27.3,14.5,30.40,South,186,2.0,0.0,58,0.00,,,0.00,WeatherTracker,2013-01-24 11:09:00,
2013-01-24 04:14:00,27.4,15.4,30.39,SW,226,2.0,0.0,60,0.00,,,0.00,WeatherTracker,2013-01-24 11:14:00,
2013-01-24 04:19:00,27.3,14.1,30.39,ESE,123,2.0,0.0,57,0.00,,,0.00,WeatherTracker,2013-01-24 11:19:00,
2013-01-24 04:29:00,28.1,14.0,30.40,South,180,2.0,0.0,55,0.00,,,0.00,WeatherTracker,2013-01-24 11:29:00,
2013-01-24 04:34:00,28.2,14.1,30.41,SSE,158,2.0,0.0,55,0.00,,,0.00,WeatherTracker,2013-01-24 11:34:00,
2013-01-24 04:39:00,28.3,13.0,30.40,SSE,164,4.0,0.0,52,0.00,,,0.00,WeatherTracker,2013-01-24 11:39:00,
2013-01-24 04:49:00,28.9,14.4,30.40,South,187,2.0,0.0,54,0.00,,,0.00,WeatherTracker,2013-01-24 11:49:00,
2013-01-24 04:59:00,29.0,14.0,30.40,South,171,2.0,0.0,53,0.00,,,0.00,WeatherTracker,2013-01-24 11:59:00,
2013-01-24 05:09:00,29.4,13.1,30.38,SSE,148,4.0,0.0,50,0.00,,,0.00,WeatherTracker,2013-01-24 12:09:00,
2013-01-24 05:14:00,29.9,14.0,30.38,SSE,150,2.0,0.0,51,0.00,,,0.00,WeatherTracker,2013-01-24 12:14:00,
2013-01-24 05:19:00,29.6,14.6,30.38,SSW,194,3.0,0.0,53,0.00,,,0.00,WeatherTracker,2013-01-24 12:19:00,
2013-01-24 05:24:00,29.4,14.8,30.39,SSE,165,3.0,0.0,54,0.00,,,0.00,WeatherTracker,2013-01-24 12:24:00,
2013-01-24 05:34:00,29.7,13.4,30.39,SE,131,6.0,0.0,50,0.00,,,0.00,WeatherTracker,2013-01-24 12:34:00,
2013-01-24 05:44:00,30.7,13.8,30.39,South,173,3.0,0.0,49,0.00,,,0.00,WeatherTracker,2013-01-24 12:44:00,
2013-01-24 05:54:00,30.3,14.4,30.39,SSE,168,1.0,0.0,51,0.00,,,0.00,WeatherTracker,2013-01-24 12:54:00,
2013-01-24 05:59:00,30.3,14.4,30.39,South,182,3.0,0.0,51,0.00,,,0.00,WeatherTracker,2013-01-24 12:59:00,
2013-01-24 06:09:00,30.8,14.8,30.39,South,185,1.0,0.0,51,0.00,,,0.00,WeatherTracker,2013-01-24 13:09:00,
2013-01-24 06:14:00,30.6,15.1,30.39,South,184,2.0,0.0,52,0.00,,,0.00,WeatherTracker,2013-01-24 13:14:00,
2013-01-24 06:24:00,31.2,13.8,30.39,SSE,152,1.0,0.0,48,0.00,,,0.00,WeatherTracker,2013-01-24 13:24:00,
2013-01-24 06:29:00,31.2,15.2,30.39,SSW,208,2.0,0.0,51,0.00,,,0.00,WeatherTracker,2013-01-24 13:29:00,
2013-01-24 06:34:00,31.0,15.0,30.39,SE,141,2.0,0.0,51,0.00,,,0.00,WeatherTracker,2013-01-24 13:34:00,
2013-01-24 06:44:00,31.3,14.4,30.41,SE,143,0.0,0.0,49,0.00,,,0.00,WeatherTracker,2013-01-24 13:44:00,
2013-01-24 06:49:00,31.2,15.2,30.40,South,172,3.0,0.0,51,0.00,,,0.00,WeatherTracker,2013-01-24 13:49:00,
2013-01-24 06:54:00,31.2,14.8,30.40,SSE,167,2.0,0.0,50,0.00,,,0.00,WeatherTracker,2013-01-24 13:54:00,
2013-01-24 06:59:00,31.3,15.7,30.41,SE,130,0.0,0.0,52,0.00,,,0.00,WeatherTracker,2013-01-24 13:59:00,
2013-01-24 07:09:00,31.1,16.4,30.41,SW,232,3.0,0.0,54,0.00,,,0.00,WeatherTracker,2013-01-24 14:09:00,
2013-01-24 07:19:00,31.1,17.3,30.40,South,188,7.0,0.0,56,0.00,,,0.00,WeatherTracker,2013-01-24 14:19:00,
2013-01-24 07:24:00,31.3,15.3,30.40,ESE,121,4.0,0.0,51,0.00,,,0.00,WeatherTracker,2013-01-24 14:24:00,
2013-01-24 07:34:00,32.3,16.2,30.41,SSW,192,4.0,0.0,51,0.00,,,0.00,WeatherTracker,2013-01-24 14:34:00,
2013-01-24 07:44:00,32.9,14.4,30.40,SE,136,5.0,0.0,46,0.00,,,0.00,WeatherTracker,2013-01-24 14:44:00,
2013-01-24 07:49:00,33.5,14.5,30.40,South,169,3.0,0.0,45,0.00,,,0.00,WeatherTracker,2013-01-24 14:49:00,
2013-01-24 07:54:00,33.9,16.3,30.40,SW,215,2.0,0.0,48,0.00,,,0.00,WeatherTracker,2013-01-24 14:54:00,
2013-01-24 08:04:00,33.7,16.6,30.40,SE,141,2.0,0.0,49,0.00,,,0.00,WeatherTracker,2013-01-24 15:04:00,
2013-01-24 08:14:00,33.7,17.5,30.39,SSE,154,6.0,0.0,51,0.00,,,0.00,WeatherTracker,2013-01-24 15:14:00,
2013-01-24 08:19:00,33.9,17.7,30.39,South,187,9.0,0.0,51,0.00,,,0.00,WeatherTracker,2013-01-24 15:19:00,
2013-01-24 08:29:00,37.1,22.9,30.39,SSW,199,6.0,0.0,56,0.00,,,0.00,WeatherTracker,2013-01-24 15:29:00,
2013-01-24 08:34:00,37.8,23.1,30.39,SSW,198,4.0,0.0,55,0.00,,,0.00,WeatherTracker,2013-01-24 15:34:00,
2013-01-24 08:44:00,38.8,23.6,30.38,South,184,5.0,0.0,54,0.00,,,0.00,WeatherTracker,2013-01-24 15:44:00,
2013-01-24 08:49:00,39.3,23.6,30.38,SSW,199,9.0,0.0,53,0.00,,,0.00,WeatherTracker,2013-01-24 15:49:00,
2013-01-24 08:54:00,39.7,23.5,30.38,WSW,248,0.0,0.0,52,0.00,,,0.00,WeatherTracker,2013-01-24 15:54:00,
2013-01-24 08:59:00,40.1,23.9,30.38,SE,138,0.0,0.0,52,0.00,,,0.00,WeatherTracker,2013-01-24 15:59:00,
2013-01-24 09:09:00,40.8,23.6,30.37,SW,221,1.0,0.0,50,0.00,,,0.00,WeatherTracker,2013-01-24 16:09:00,
2013-01-24 09:19:00,41.5,23.8,30.37,SW,216,3.0,0.0,49,0.00,,,0.00,WeatherTracker,2013-01-24 16:19:00,
2013-01-24 09:24:00,42.0,23.2,30.36,South,170,4.0,0.0,47,0.00,,,0.00,WeatherTracker,2013-01-24 16:24:00,
2013-01-24 09:29:00,42.5,24.2,30.37,SSW,198,1.0,0.0,48,0.00,,,0.00,WeatherTracker,2013-01-24 16:29:00,
2013-01-24 09:34:00,43.1,24.3,30.37,South,190,6.0,0.0,47,0.00,,,0.00,WeatherTracker,2013-01-24 16:34:00,
2013-01-24 09:39:00,43.4,24.0,30.37,SSE,161,4.0,0.0,46,0.00,,,0.00,WeatherTracker,2013-01-24 16:39:00,
2013-01-24 09:44:00,43.6,23.7,30.37,South,188,2.0,0.0,45,0.00,,,0.00,WeatherTracker,2013-01-24 16:44:00,
2013-01-24 09:49:00,43.8,23.9,30.37,South,189,0.0,0.0,45,0.00,,,0.00,WeatherTracker,2013-01-24 16:49:00,
2013-01-24 09:59:00,44.5,23.4,30.37,South,189,0.0,0.0,43,0.00,,,0.00,WeatherTracker,2013-01-24 16:59:00,
2013-01-24 10:04:00,44.9,23.2,30.37,South,189,0.0,0.0,42,0.00,,,0.00,WeatherTracker,2013-01-24 17:04:00,
2013-01-24 10:14:00,45.8,23.5,30.36,South,189,1.0,0.0,41,0.00,,,0.00,WeatherTracker,2013-01-24 17:14:00,
2013-01-24 10:19:00,46.4,23.4,30.36,SSW,202,2.0,0.0,40,0.00,,,0.00,WeatherTracker,2013-01-24 17:19:00,
2013-01-24 10:24:00,46.7,23.1,30.36,SSW,198,0.0,0.0,39,0.00,,,0.00,WeatherTracker,2013-01-24 17:24:00,
2013-01-24 10:29:00,47.1,22.8,30.35,SSW,198,0.0,0.0,38,0.00,,,0.00,WeatherTracker,2013-01-24 17:29:00,
2013-01-24 10:34:00,47.6,23.3,30.35,SSW,198,0.0,0.0,38,0.00,,,0.00,WeatherTracker,2013-01-24 17:34:00,
2013-01-24 10:44:00,47.5,23.2,30.34,South,183,0.0,0.0,38,0.00,,,0.00,WeatherTracker,2013-01-24 17:44:00,
2013-01-24 10:49:00,47.6,23.3,30.34,South,183,0.0,0.0,38,0.00,,,0.00,WeatherTracker,2013-01-24 17:49:00,
2013-01-24 10:59:00,48.0,22.3,30.34,North,9,0.0,0.0,36,0.00,,,0.00,WeatherTracker,2013-01-24 17:59:00,
2013-01-24 11:04:00,47.8,22.8,30.34,NNW,337,1.0,0.0,37,0.00,,,0.00,WeatherTracker,2013-01-24 18:04:00,
2013-01-24 11:09:00,47.6,22.6,30.33,NNW,340,0.0,0.0,37,0.00,,,0.00,WeatherTracker,2013-01-24 18:09:00,
2013-01-24 11:19:00,47.4,22.4,30.32,NNW,339,3.0,0.0,37,0.00,,,0.00,WeatherTracker,2013-01-24 18:19:00,
2013-01-24 11:24:00,47.2,22.9,30.32,NNW,342,6.0,0.0,38,0.00,,,0.00,WeatherTracker,2013-01-24 18:24:00,
2013-01-24 11:34:00,46.7,20.5,30.32,NNW,348,7.0,0.0,35,0.00,,,0.00,WeatherTracker,2013-01-24 18:34:00,
2013-01-24 11:44:00,46.2,20.1,30.31,North,5,9.0,0.0,35,0.00,,,0.00,WeatherTracker,2013-01-24 18:44:00,
2013-01-24 11:49:00,46.0,20.6,30.31,NNW,328,6.0,0.0,36,0.00,,,0.00,WeatherTracker,2013-01-24 18:49:00,
2013-01-24 11:59:00,45.8,20.4,30.31,North,355,8.0,0.0,36,0.00,,,0.00,WeatherTracker,2013-01-24 18:59:00,
2013-01-24 12:09:00,45.7,20.9,30.30,NNW,338,4.0,0.0,37,0.00,,,0.00,WeatherTracker,2013-01-24 19:09:00,
2013-01-24 12:14:00,45.7,20.3,30.30,NW,323,8.0,0.0,36,0.00,,,0.00,WeatherTracker,2013-01-24 19:14:00,
2013-01-24 12:19:00,45.7,20.3,30.30,NNW,340,8.0,0.0,36,0.00,,,0.00,WeatherTracker,2013-01-24 19:19:00,
2013-01-24 12:24:00,45.8,19.7,30.29,NNW,344,7.0,0.0,35,0.00,,,0.00,WeatherTracker,2013-01-24 19:24:00,
2013-01-24 12:34:00,45.6,20.8,30.29,North,355,6.0,0.0,37,0.00,,,0.00,WeatherTracker,2013-01-24 19:34:00,
2013-01-24 12:44:00,45.4,20.0,30.29,NNW,340,6.0,0.0,36,0.00,,,0.00,WeatherTracker,2013-01-24 19:44:00,
2013-01-24 12:49:00,45.1,19.8,30.29,NNW,347,5.0,0.0,36,0.00,,,0.00,WeatherTracker,2013-01-24 19:49:00,
2013-01-24 12:59:00,45.0,19.7,30.29,NNW,331,7.0,0.0,36,0.00,,,0.00,WeatherTracker,2013-01-24 19:59:00,
2013-01-24 13:04:00,45.0,20.3,30.29,North,355,4.0,0.0,37,0.00,,,0.00,WeatherTracker,2013-01-24 20:04:00,
2013-01-24 13:09:00,44.7,20.7,30.28,NW,324,5.0,0.0,38,0.00,,,0.00,WeatherTracker,2013-01-24 20:09:00,
2013-01-24 13:14:00,44.5,20.5,30.28,NNW,344,6.0,0.0,38,0.00,,,0.00,WeatherTracker,2013-01-24 20:14:00,
2013-01-24 13:19:00,44.3,21.5,30.28,NNW,344,4.0,0.0,40,0.00,,,0.00,WeatherTracker,2013-01-24 20:19:00,
2013-01-24 13:24:00,44.3,20.9,30.28,North,5,2.0,0.0,39,0.00,,,0.00,WeatherTracker,2013-01-24 20:24:00,
2013-01-24 13:34:00,44.2,20.2,30.29,NNW,341,5.0,0.0,38,0.00,,,0.00,WeatherTracker,2013-01-24 20:34:00,
2013-01-24 13:44:00,44.0,20.7,30.29,NNW,348,1.0,0.0,39,0.00,,,0.00,WeatherTracker,2013-01-24 20:44:00,
2013-01-24 13:49:00,43.9,20.6,30.29,NNE,24,3.0,0.0,39,0.00,,,0.00,WeatherTracker,2013-01-24 20:49:00,
2013-01-24 13:54:00,43.8,20.5,30.29,NNW,335,5.0,0.0,39,0.00,,,0.00,WeatherTracker,2013-01-24 20:54:00,
2013-01-24 13:59:00,43.7,21.0,30.29,NE,44,2.0,0.0,40,0.00,,,0.00,WeatherTracker,2013-01-24 20:59:00,
2013-01-24 14:04:00,43.8,21.1,30.29,NNE,16,6.0,0.0,40,0.00,,,0.00,WeatherTracker,2013-01-24 21:04:00,
2013-01-24 14:14:00,43.8,21.1,30.29,NNE,23,9.0,0.0,40,0.00,,,0.00,WeatherTracker,2013-01-24 21:14:00,
2013-01-24 14:24:00,43.8,22.2,30.29,NNW,329,9.0,0.0,42,0.00,,,0.00,WeatherTracker,2013-01-24 21:24:00,
2013-01-24 14:29:00,43.7,22.1,30.29,NNW,338,8.0,0.0,42,0.00,,,0.00,WeatherTracker,2013-01-24 21:29:00,
2013-01-24 14:39:00,43.6,22.0,30.29,North,355,7.0,0.0,42,0.00,,,0.00,WeatherTracker,2013-01-24 21:39:00,
2013-01-24 14:49:00,43.4,20.7,30.30,North,360,8.0,0.0,40,0.00,,,0.00,WeatherTracker,2013-01-24 21:49:00,
2013-01-24 14:59:00,43.4,21.9,30.30,NNW,329,5.0,0.0,42,0.00,,,0.00,WeatherTracker,2013-01-24 21:59:00,
2013-01-24 15:04:00,43.3,21.2,30.30,North,350,5.0,0.0,41,0.00,,,0.00,WeatherTracker,2013-01-24 22:04:00,
2013-01-24 15:09:00,43.3,21.2,30.30,North,355,4.0,0.0,41,0.00,,,0.00,WeatherTracker,2013-01-24 22:09:00,
2013-01-24 15:19:00,43.4,20.1,30.30,NE,34,4.0,0.0,39,0.00,,,0.00,WeatherTracker,2013-01-24 22:19:00,
2013-01-24 15:24:00,43.4,20.1,30.30,NE,38,4.0,0.0,39,0.00,,,0.00,WeatherTracker,2013-01-24 22:24:00,
2013-01-24 15:34:00,43.4,21.3,30.30,NNE,33,0.0,0.0,41,0.00,,,0.00,WeatherTracker,2013-01-24 22:34:00,
2013-01-24 15:39:00,43.3,20.6,30.30,North,351,5.0,0.0,40,0.00,,,0.00,WeatherTracker,2013-01-24 22:39:00,
2013-01-24 15:49:00,42.8,21.9,30.30,NNW,336,3.0,0.0,43,0.00,,,0.00,WeatherTracker,2013-01-24 22:49:00,
2013-01-24 15:59:00,42.3,22.0,30.30,NNW,348,7.0,0.0,44,0.00,,,0.00,WeatherTracker,2013-01-24 22:59:00,
2013-01-24 16:09:00,41.7,21.9,30.30,NNE,13,2.0,0.0,45,0.00,,,0.00,WeatherTracker,2013-01-24 23:09:00,
2013-01-24 16:14:00,41.5,22.8,30.30,North,349,3.0,0.0,47,0.00,,,0.00,WeatherTracker,2013-01-24 23:14:00,
2013-01-24 16:19:00,41.3,22.6,30.31,NNW,342,6.0,0.0,47,0.00,,,0.00,WeatherTracker,2013-01-24 23:19:00,
2013-01-24 16:24:00,41.1,22.9,30.31,North,360,2.0,0.0,48,0.00,,,0.00,WeatherTracker,2013-01-24 23:24:00,
2013-01-24 16:34:00,40.8,24.1,30.31,North,5,6.0,0.0,51,0.00,,,0.00,WeatherTracker,2013-01-24 23:34:00,
2013-01-24 16:44:00,40.3,25.9,30.31,North,360,5.0,0.0,56,0.00,,,0.00,WeatherTracker,2013-01-24 23:44:00,
2013-01-24 16:54:00,39.7,26.1,30.31,NE,50,2.0,0.0,58,0.00,,,0.00,WeatherTracker,2013-01-24 23:54:00,
2013-01-24 16:59:00,39.4,26.7,30.31,NNW,346,3.0,0.0,60,0.00,,,0.00,WeatherTracker,2013-01-24 23:59:00,
2013-01-24 17:04:00,39.2,27.3,30.31,NNW,337,0.0,0.0,62,0.00,,,0.00,WeatherTracker,2013-01-25 00:04:00,
2013-01-24 17:14:00,38.8,28.1,30.31,NNW,337,0.0,0.0,65,0.00,,,0.00,WeatherTracker,2013-01-25 00:14:00,
2013-01-24 17:19:00,38.6,27.9,30.31,NNW,337,0.0,0.0,65,0.00,,,0.00,WeatherTracker,2013-01-25 00:19:00,
2013-01-24 17:29:00,38.2,27.5,30.30,SW,214,1.0,0.0,65,0.00,,,0.00,WeatherTracker,2013-01-25 00:29:00,
2013-01-24 17:39:00,37.7,27.7,30.29,SSW,193,1.0,0.0,67,0.00,,,0.00,WeatherTracker,2013-01-25 00:39:00,
2013-01-24 17:44:00,37.5,27.6,30.30,SSW,192,1.0,0.0,67,0.00,,,0.00,WeatherTracker,2013-01-25 00:44:00,
2013-01-24 17:49:00,37.4,27.8,30.30,SSW,199,0.0,0.0,68,0.00,,,0.00,WeatherTracker,2013-01-25 00:49:00,
2013-01-24 17:59:00,37.4,27.8,30.30,SSW,206,0.0,0.0,68,0.00,,,0.00,WeatherTracker,2013-01-25 00:59:00,
2013-01-24 18:09:00,37.2,27.6,30.32,NNW,338,4.0,0.0,68,0.00,,,0.00,WeatherTracker,2013-01-25 01:09:00,
2013-01-24 18:14:00,37.0,27.8,30.32,NNW,329,7.0,0.0,69,0.00,,,0.00,WeatherTracker,2013-01-25 01:14:00,
2013-01-24 18:24:00,36.9,27.7,30.34,North,351,5.0,0.0,69,0.00,,,0.00,WeatherTracker,2013-01-25 01:24:00,
2013-01-24 18:34:00,36.6,27.8,30.34,NNW,338,5.0,0.0,70,0.00,,,0.00,WeatherTracker,2013-01-25 01:34:00,
2013-01-24 18:39:00,36.6,27.8,30.33,North,5,3.0,0.0,70,0.00,,,0.00,WeatherTracker,2013-01-25 01:39:00,
2013-01-24 18:49:00,36.4,27.9,30.33,North,5,1.0,0.0,71,0.00,,,0.00,WeatherTracker,2013-01-25 01:49:00,
2013-01-24 18:59:00,36.1,28.0,30.32,North,5,0.0,0.0,72,0.00,,,0.00,WeatherTracker,2013-01-25 01:59:00,
2013-01-24 19:09:00,35.9,27.8,30.32,SSW,203,4.0,0.0,72,0.00,,,0.00,WeatherTracker,2013-01-25 02:09:00,
2013-01-24 19:19:00,35.8,28.0,30.32,SSW,195,3.0,0.0,73,0.00,,,0.00,WeatherTracker,2013-01-25 02:19:00,
2013-01-24 19:29:00,35.6,27.8,30.32,SSE,150,3.0,0.0,73,0.00,,,0.00,WeatherTracker,2013-01-25 02:29:00,
2013-01-24 19:34:00,35.7,27.6,30.32,SE,143,2.0,0.0,72,0.00,,,0.00,WeatherTracker,2013-01-25 02:34:00,
2013-01-24 19:39:00,35.7,27.9,30.32,South,176,2.0,0.0,73,0.00,,,0.00,WeatherTracker,2013-01-25 02:39:00,
2013-01-24 19:44:00,35.6,27.8,30.32,SSW,194,3.0,0.0,73,0.00,,,0.00,WeatherTracker,2013-01-25 02:44:00,
2013-01-24 19:49:00,35.5,28.0,30.32,South,190,1.0,0.0,74,0.00,,,0.00,WeatherTracker,2013-01-25 02:49:00,
2013-01-24 19:54:00,35.4,28.0,30.31,South,187,1.0,0.0,74,0.00,,,0.00,WeatherTracker,2013-01-25 02:54:00,
2013-01-24 19:59:00,35.3,27.9,30.31,South,181,2.0,0.0,74,0.00,,,0.00,WeatherTracker,2013-01-25 02:59:00,
2013-01-24 20:04:00,35.4,28.0,30.31,South,180,2.0,0.0,74,0.00,,,0.00,WeatherTracker,2013-01-25 03:04:00,
2013-01-24 20:09:00,35.6,27.8,30.31,SE,134,3.0,0.0,73,0.00,,,0.00,WeatherTracker,2013-01-25 03:09:00,
2013-01-24 20:19:00,35.8,28.0,30.31,South,186,3.0,0.0,73,0.00,,,0.00,WeatherTracker,2013-01-25 03:19:00,
2013-01-24 20:29:00,35.9,28.1,30.31,SSW,209,0.0,0.0,73,0.00,,,0.00,WeatherTracker,2013-01-25 03:29:00,
2013-01-24 20:39:00,35.8,28.3,30.32,NNW,331,1.0,0.0,74,0.00,,,0.00,WeatherTracker,2013-01-25 03:39:00,
2013-01-24 20:44:00,35.7,28.6,30.32,NNW,344,4.0,0.0,75,0.00,,,0.00,WeatherTracker,2013-01-25 03:44:00,
2013-01-24 20:49:00,35.8,28.3,30.32,NNW,345,1.0,0.0,74,0.00,,,0.00,WeatherTracker,2013-01-25 03:49:00,
2013-01-24 20:59:00,35.5,28.4,30.32,West,274,1.0,0.0,75,0.00,,,0.00,WeatherTracker,2013-01-25 03:59:00,
2013-01-24 21:04:00,35.4,28.3,30.32,SW,236,0.0,0.0,75,0.00,,,0.00,WeatherTracker,2013-01-25 04:04:00,
2013-01-24 21:09:00,35.3,28.5,30.32,SW,236,0.0,0.0,76,0.00,,,0.00,WeatherTracker,2013-01-25 04:09:00,
2013-01-24 21:14:00,35.2,28.1,30.32,SW,235,0.0,0.0,75,0.00,,,0.00,WeatherTracker,2013-01-25 04:14:00,
2013-01-24 21:19:00,35.2,28.1,30.33,South,191,0.0,0.0,75,0.00,,,0.00,WeatherTracker,2013-01-25 04:19:00,
2013-01-24 21:29:00,35.2,28.4,30.33,South,191,0.0,0.0,76,0.00,,,0.00,WeatherTracker,2013-01-25 04:29:00,
2013-01-24 21:39:00,35.1,28.3,30.33,SSE,151,2.0,0.0,76,0.00,,,0.00,WeatherTracker,2013-01-25 04:39:00,
2013-01-24 21:44:00,35.3,28.2,30.33,SSE,152,0.0,0.0,75,0.00,,,0.00,WeatherTracker,2013-01-25 04:44:00,
2013-01-24 21:54:00,35.2,28.7,30.32,South,175,1.0,0.0,77,0.00,,,0.00,WeatherTracker,2013-01-25 04:54:00,
2013-01-24 21:59:00,35.1,28.6,30.32,SE,137,3.0,0.0,77,0.00,,,0.00,WeatherTracker,2013-01-25 04:59:00,
2013-01-24 22:04:00,35.0,28.5,30.32,SE,131,1.0,0.0,77,0.00,,,0.00,WeatherTracker,2013-01-25 05:04:00,
2013-01-24 22:09:00,35.1,28.3,30.31,South,190,2.0,0.0,76,0.00,,,0.00,WeatherTracker,2013-01-25 05:09:00,
2013-01-24 22:19:00,35.5,28.7,30.30,South,178,3.0,0.0,76,0.00,,,0.00,WeatherTracker,2013-01-25 05:19:00,
2013-01-24 22:24:00,35.3,28.2,30.29,SE,128,4.0,0.0,75,0.00,,,0.00,WeatherTracker,2013-01-25 05:24:00,
2013-01-24 22:34:00,35.6,28.1,30.29,SSE,152,0.0,0.0,74,0.00,,,0.00,WeatherTracker,2013-01-25 05:34:00,
2013-01-24 22:39:00,35.3,28.2,30.29,SSW,206,2.0,0.0,75,0.00,,,0.00,WeatherTracker,2013-01-25 05:39:00,
2013-01-24 22:44:00,35.0,28.2,30.28,SSW,199,0.0,0.0,76,0.00,,,0.00,WeatherTracker,2013-01-25 05:44:00,
2013-01-24 22:49:00,34.7,27.9,30.29,SSW,199,0.0,0.0,76,0.00,,,0.00,WeatherTracker,2013-01-25 05:49:00,
2013-01-24 22:54:00,34.4,27.6,30.29,SSW,199,0.0,0.0,76,0.00,,,0.00,WeatherTracker,2013-01-25 05:54:00,
2013-01-24 22:59:00,34.2,28.1,30.30,NNW,337,10.0,0.0,78,0.00,,,0.00,WeatherTracker,2013-01-25 05:59:00,
2013-01-24 23:09:00,33.3,26.9,30.30,NNW,346,9.0,0.0,77,0.00,,,0.00,WeatherTracker,2013-01-25 06:09:00,
2013-01-24 23:14:00,32.7,26.3,30.30,North,360,12.0,0.0,77,0.00,,,0.00,WeatherTracker,2013-01-25 06:14:00,
2013-01-24 23:19:00,32.3,26.2,30.31,North,360,5.0,0.0,78,0.00,,,0.00,WeatherTracker,2013-01-25 06:19:00,
2013-01-24 23:24:00,32.1,26.0,30.31,North,355,5.0,0.0,78,0.00,,,0.00,WeatherTracker,2013-01-25 06:24:00,
2013-01-24 23:34:00,32.1,26.6,30.32,East,96,0.0,0.0,80,0.00,,,0.00,WeatherTracker,2013-01-25 06:34:00,
2013-01-24 23:44:00,32.1,26.6,30.32,East,96,0.0,0.0,80,0.00,,,0.00,WeatherTracker,2013-01-25 06:44:00,
2013-01-24 23:49:00,32.1,26.6,30.32,East,96,0.0,0.0,80,0.00,,,0.00,WeatherTracker,2013-01-25 06:49:00,
2013-01-24 23:59:00,32.1,26.6,30.33,East,96,1.0,0.0,80,0.00,,,0.00,WeatherTracker,2013-01-25 06:59:00,